User: anonymous   Login
Location: Beaurecueil
(43.5122°N, 5.5450°E)
Time: 22:38:41
(UTC+00:00)
Language:

Resurs 1-3 - Orbit

View from above orbital plane
View from above orbital plane
View from above satellite
View from above satellite

Ground track
Ground track

The orbit data is extracted from the following two-line orbital elements,

1 23342U 94074A   20327.89447298 +.00000168 +00000-0 +29481-4 0  9996
2 23342 097.9092 014.4774 0000911 132.3796 227.7493 14.79354670403019
Epoch (UTC): 22 November 2020 21:28:02
Eccentricity: 0.0000911
inclination: 97.9092°
perigee height: 631 km
apogee height: 632 km
right ascension of ascending node: 14.4774°
argument of perigee: 132.3796°
revolutions per day: 14.79354670
mean anomaly at epoch: 227.7493°
orbit number at epoch: 40301

The dashed part of the orbit path shows where the satellite is in the earth's shadow,  

DLR